Location: Ambatotampy
(18.8181°S, 47.6186°E)
Time: 23:25:05
(UTC+00:00)

SL-08 R/B - Pass Details

Date: 21 January 2021
Orbit: 674 x 739 km, 98.4° (Epoch: 24 February)

Event Time Altitude Azimuth Distance (km) Brightness Sun altitude
Rises 01:01:31 0° 178° (S) 3,164 7.1 -19.4°
Reaches altitude 10° 01:03:54 10° 185° (S) 2,228 6.2 -19.0°
Maximum altitude 01:08:30 42° 255° (WSW) 1,012 3.8 -18.0°
Enters shadow 01:10:02 32° 298° (WNW) 1,202 3.9 -17.7°
